Time,TemperatureF,DewpointF,PressureIn,WindDirection,WindDirectionDegrees,WindSpeedMPH,WindSpeedGustMPH,Humidity,HourlyPrecipIn,Conditions,Clouds,dailyrainin,SoftwareType,DateUTC
2013-01-12 00:00:00,53.2,48.5,29.76,SE,135,14.5,24.2,84,0.00,RA,,0.00,WeatherDisplay:10.37,2013-01-12 05:00:00,
2013-01-12 00:02:00,53.1,48.4,29.77,SE,135,17.4,21.9,84,0.00,RA,,0.00,WeatherDisplay:10.37,2013-01-12 05:02:00,
2013-01-12 00:03:00,53.1,48.4,29.77,SE,135,19.4,21.9,84,0.00,RA,,0.00,WeatherDisplay:10.37,2013-01-12 05:03:00,
2013-01-12 00:08:00,53.2,48.5,29.76,SE,135,14.5,24.2,84,0.00,RA,,0.00,WeatherDisplay:10.37,2013-01-12 05:08:00,
2013-01-12 00:13:00,53.1,48.4,29.77,SE,135,15.4,20.7,84,0.00,CLR,,0.00,WeatherDisplay:10.37,2013-01-12 05:13:00,
2013-01-12 00:18:00,52.9,48.2,29.77,SE,135,12.5,21.9,84,0.00,CLR,,0.00,WeatherDisplay:10.37,2013-01-12 05:18:00,
2013-01-12 00:23:00,52.9,48.2,29.77,SE,135,12.5,18.4,84,0.00,CLR,,0.00,WeatherDisplay:10.37,2013-01-12 05:23:00,
2013-01-12 00:28:00,53.1,48.7,29.77,SE,135,12.5,24.2,85,0.00,CLR,,0.00,WeatherDisplay:10.37,2013-01-12 05:28:00,
2013-01-12 00:33:00,52.9,48.2,29.77,SE,135,11.7,21.9,84,0.00,CLR,,0.00,WeatherDisplay:10.37,2013-01-12 05:33:00,
2013-01-12 00:38:00,52.9,48.2,29.77,SE,135,17.4,23.0,84,0.00,CLR,,0.00,WeatherDisplay:10.37,2013-01-12 05:38:00,
2013-01-12 00:43:00,52.9,48.2,29.78,SE,135,14.5,25.3,84,0.00,CLR,,0.00,WeatherDisplay:10.37,2013-01-12 05:43:00,
2013-01-12 00:48:00,52.9,48.2,29.78,South,180,9.7,15.0,84,0.00,CLR,,0.00,WeatherDisplay:10.37,2013-01-12 05:48:00,
2013-01-12 00:53:00,52.9,48.2,29.78,SSE,158,13.8,21.9,84,0.00,CLR,,0.00,WeatherDisplay:10.37,2013-01-12 05:53:00,
2013-01-12 00:58:00,53.1,48.4,29.79,SSE,158,12.8,20.7,84,0.00,CLR,,0.00,WeatherDisplay:10.37,2013-01-12 05:58:00,
2013-01-12 01:03:00,53.1,48.4,29.79,SSE,158,16.1,24.2,84,0.00,CLR,,0.00,WeatherDisplay:10.37,2013-01-12 06:03:00,
2013-01-12 01:08:00,53.2,48.5,29.79,SE,135,16.5,24.2,84,0.00,CLR,,0.00,WeatherDisplay:10.37,2013-01-12 06:08:00,
2013-01-12 01:13:00,53.1,48.4,29.80,SE,135,17.4,23.0,84,0.00,CLR,,0.00,WeatherDisplay:10.37,2013-01-12 06:13:00,
2013-01-12 01:18:00,53.1,48.4,29.80,SE,135,12.5,18.4,84,0.00,CLR,,0.00,WeatherDisplay:10.37,2013-01-12 06:18:00,
2013-01-12 01:23:00,52.9,48.2,29.80,SE,135,12.5,16.1,84,0.00,CLR,,0.00,WeatherDisplay:10.37,2013-01-12 06:23:00,
2013-01-12 01:28:00,52.9,48.2,29.81,SE,135,17.4,26.5,84,0.00,CLR,,0.00,WeatherDisplay:10.37,2013-01-12 06:28:00,
2013-01-12 01:33:00,52.9,47.9,29.81,SE,135,13.7,23.0,83,0.00,CLR,,0.00,WeatherDisplay:10.37,2013-01-12 06:33:00,
2013-01-12 01:38:00,52.7,47.7,29.81,SE,135,13.7,23.0,83,0.00,CLR,,0.00,WeatherDisplay:10.37,2013-01-12 06:38:00,
2013-01-12 01:43:00,52.7,48.0,29.81,SE,135,16.5,20.7,84,0.00,CLR,,0.00,WeatherDisplay:10.37,2013-01-12 06:43:00,
2013-01-12 01:48:00,52.7,48.0,29.81,SE,135,21.3,21.3,84,0.00,CLR,,0.00,WeatherDisplay:10.37,2013-01-12 06:48:00,
2013-01-12 01:53:00,52.5,47.5,29.81,SE,135,11.7,18.4,83,0.00,CLR,,0.00,WeatherDisplay:10.37,2013-01-12 06:53:00,
2013-01-12 01:58:00,52.5,47.8,29.82,SE,135,19.4,20.7,84,0.00,CLR,,0.00,WeatherDisplay:10.37,2013-01-12 06:58:00,
2013-01-12 02:03:00,52.5,47.8,29.82,SE,135,13.7,17.3,84,0.00,CLR,,0.00,WeatherDisplay:10.37,2013-01-12 07:03:00,
2013-01-12 02:08:00,52.5,47.8,29.82,SE,135,14.5,20.7,84,0.00,CLR,,0.00,WeatherDisplay:10.37,2013-01-12 07:08:00,
2013-01-12 02:13:00,52.3,47.6,29.82,SE,135,13.7,26.5,84,0.00,CLR,,0.00,WeatherDisplay:10.37,2013-01-12 07:13:00,
2013-01-12 02:18:00,52.3,47.3,29.82,SE,135,15.4,18.4,83,0.00,CLR,,0.00,WeatherDisplay:10.37,2013-01-12 07:18:00,
2013-01-12 02:23:00,52.3,47.3,29.83,SE,135,15.4,26.5,83,0.00,CLR,,0.00,WeatherDisplay:10.37,2013-01-12 07:23:00,
2013-01-12 02:28:00,52.3,47.3,29.83,South,180,10.4,16.1,83,0.00,CLR,,0.00,WeatherDisplay:10.37,2013-01-12 07:28:00,
2013-01-12 02:33:00,52.3,47.3,29.82,SSW,202,12.1,17.3,83,0.00,CLR,,0.00,WeatherDisplay:10.37,2013-01-12 07:33:00,
2013-01-12 02:38:00,52.3,47.3,29.82,SW,225,12.1,17.3,83,0.00,CLR,,0.00,WeatherDisplay:10.37,2013-01-12 07:38:00,
2013-01-12 02:43:00,52.3,47.3,29.83,SW,225,14.5,19.6,83,0.00,CLR,,0.00,WeatherDisplay:10.37,2013-01-12 07:43:00,
2013-01-12 02:48:00,52.3,47.3,29.83,SW,225,7.4,15.0,83,0.00,CLR,,0.00,WeatherDisplay:10.37,2013-01-12 07:48:00,
2013-01-12 02:53:00,52.3,47.3,29.83,South,180,13.8,15.0,83,0.00,CLR,,0.00,WeatherDisplay:10.37,2013-01-12 07:53:00,
2013-01-12 02:58:00,52.3,47.3,29.83,South,180,11.4,12.7,83,0.00,CLR,,0.00,WeatherDisplay:10.37,2013-01-12 07:58:00,
2013-01-12 03:03:00,52.3,47.3,29.83,SE,135,11.7,17.3,83,0.00,CLR,,0.00,WeatherDisplay:10.37,2013-01-12 08:03:00,
2013-01-12 03:08:00,52.3,47.3,29.83,South,180,9.7,17.3,83,0.00,CLR,,0.00,WeatherDisplay:10.37,2013-01-12 08:08:00,
2013-01-12 03:13:00,52.2,47.2,29.83,South,180,10.4,16.1,83,0.00,CLR,,0.00,WeatherDisplay:10.37,2013-01-12 08:13:00,
2013-01-12 03:18:00,52.3,47.0,29.83,South,180,10.4,21.9,82,0.00,CLR,,0.00,WeatherDisplay:10.37,2013-01-12 08:18:00,
2013-01-12 03:23:00,52.3,47.0,29.84,South,180,9.7,17.3,82,0.00,CLR,,0.00,WeatherDisplay:10.37,2013-01-12 08:23:00,
2013-01-12 03:28:00,52.3,47.0,29.84,South,180,11.4,15.0,82,0.00,CLR,,0.00,WeatherDisplay:10.37,2013-01-12 08:28:00,
2013-01-12 03:33:00,52.3,47.0,29.84,SW,225,12.1,16.1,82,0.00,CLR,,0.00,WeatherDisplay:10.37,2013-01-12 08:33:00,
2013-01-12 03:38:00,52.5,47.2,29.84,SW,225,10.4,19.6,82,0.00,CLR,,0.00,WeatherDisplay:10.37,2013-01-12 08:38:00,
2013-01-12 03:43:00,52.5,47.2,29.84,SW,225,11.4,13.8,82,0.00,CLR,,0.00,WeatherDisplay:10.37,2013-01-12 08:43:00,
2013-01-12 03:48:00,52.5,47.2,29.84,SW,225,8.8,17.3,82,0.00,CLR,,0.00,WeatherDisplay:10.37,2013-01-12 08:48:00,
2013-01-12 03:54:00,52.5,47.2,29.84,South,180,10.4,15.0,82,0.00,CLR,,0.00,WeatherDisplay:10.37,2013-01-12 08:54:00,
2013-01-12 03:59:00,52.5,47.2,29.83,South,180,12.8,18.4,82,0.00,CLR,,0.00,WeatherDisplay:10.37,2013-01-12 08:59:00,
2013-01-12 04:04:00,52.5,47.2,29.84,South,180,12.1,16.1,82,0.00,CLR,,0.00,WeatherDisplay:10.37,2013-01-12 09:04:00,
2013-01-12 04:09:00,52.3,47.0,29.84,South,180,16.8,24.2,82,0.00,CLR,,0.00,WeatherDisplay:10.37,2013-01-12 09:09:00,
2013-01-12 04:14:00,52.5,47.2,29.84,SW,225,14.5,23.0,82,0.00,CLR,,0.00,WeatherDisplay:10.37,2013-01-12 09:14:00,
2013-01-12 04:19:00,52.5,46.9,29.85,SW,225,12.8,17.3,81,0.00,CLR,,0.00,WeatherDisplay:10.37,2013-01-12 09:19:00,
2013-01-12 04:24:00,52.7,47.0,29.83,SW,225,16.1,19.6,81,0.00,CLR,,0.00,WeatherDisplay:10.37,2013-01-12 09:24:00,
2013-01-12 04:29:00,52.5,46.9,29.83,SW,225,12.8,16.1,81,0.00,CLR,,0.00,WeatherDisplay:10.37,2013-01-12 09:29:00,
2013-01-12 04:34:00,52.5,46.9,29.83,SW,225,10.4,16.1,81,0.00,CLR,,0.00,WeatherDisplay:10.37,2013-01-12 09:34:00,
2013-01-12 04:39:00,52.3,46.7,29.84,SW,225,12.1,19.6,81,0.00,CLR,,0.00,WeatherDisplay:10.37,2013-01-12 09:39:00,
2013-01-12 04:44:00,52.3,46.7,29.84,SW,225,10.4,15.4,81,0.00,CLR,,0.00,WeatherDisplay:10.37,2013-01-12 09:44:00,
2013-01-12 04:49:00,52.3,47.0,29.84,SW,225,8.8,20.7,82,0.00,CLR,,0.00,WeatherDisplay:10.37,2013-01-12 09:49:00,
2013-01-12 04:54:00,52.3,47.0,29.84,SW,225,10.4,13.8,82,0.00,CLR,,0.00,WeatherDisplay:10.37,2013-01-12 09:54:00,
2013-01-12 04:59:00,52.3,47.0,29.84,SW,225,8.8,15.0,82,0.00,CLR,,0.00,WeatherDisplay:10.37,2013-01-12 09:59:00,
2013-01-12 05:04:00,52.3,47.0,29.85,SW,225,10.4,12.7,82,0.00,CLR,,0.00,WeatherDisplay:10.37,2013-01-12 10:04:00,
2013-01-12 05:09:00,52.3,46.7,29.85,SW,225,10.4,16.1,81,0.00,CLR,,0.00,WeatherDisplay:10.37,2013-01-12 10:09:00,
2013-01-12 05:14:00,52.2,46.8,29.85,SW,225,8.8,15.0,82,0.00,CLR,,0.00,WeatherDisplay:10.37,2013-01-12 10:14:00,
2013-01-12 05:19:00,52.2,46.8,29.84,SW,225,8.1,12.7,82,0.00,CLR,,0.00,WeatherDisplay:10.37,2013-01-12 10:19:00,
2013-01-12 05:24:00,52.0,46.7,29.84,SW,225,9.7,15.0,82,0.00,CLR,,0.00,WeatherDisplay:10.37,2013-01-12 10:24:00,
2013-01-12 05:29:00,52.2,46.8,29.84,SW,225,6.4,13.8,82,0.00,CLR,,0.00,WeatherDisplay:10.37,2013-01-12 10:29:00,
2013-01-12 05:34:00,52.0,46.7,29.84,SW,225,8.8,10.4,82,0.00,CLR,,0.00,WeatherDisplay:10.37,2013-01-12 10:34:00,
2013-01-12 05:39:00,52.0,46.7,29.84,SW,225,9.7,9.7,82,0.00,CLR,,0.00,WeatherDisplay:10.37,2013-01-12 10:39:00,
2013-01-12 05:44:00,52.0,46.7,29.85,SW,225,8.8,10.4,82,0.00,CLR,,0.00,WeatherDisplay:10.37,2013-01-12 10:44:00,
2013-01-12 05:49:00,52.0,46.7,29.85,SW,225,8.1,12.7,82,0.00,CLR,,0.00,WeatherDisplay:10.37,2013-01-12 10:49:00,
2013-01-12 05:54:00,52.0,46.7,29.85,SW,225,9.7,11.5,82,0.00,CLR,,0.00,WeatherDisplay:10.37,2013-01-12 10:54:00,
2013-01-12 05:59:00,52.0,46.7,29.85,SW,225,8.1,12.7,82,0.00,CLR,,0.00,WeatherDisplay:10.37,2013-01-12 10:59:00,
2013-01-12 06:04:00,52.0,46.7,29.85,SW,225,8.8,11.5,82,0.00,CLR,,0.00,WeatherDisplay:10.37,2013-01-12 11:04:00,
2013-01-12 06:09:00,52.0,46.7,29.86,SW,225,8.8,12.7,82,0.00,CLR,,0.00,WeatherDisplay:10.37,2013-01-12 11:09:00,
2013-01-12 06:14:00,52.0,46.7,29.86,SW,225,10.4,12.7,82,0.00,CLR,,0.00,WeatherDisplay:10.37,2013-01-12 11:14:00,
2013-01-12 06:19:00,52.0,46.7,29.86,SW,225,5.7,15.0,82,0.00,CLR,,0.00,WeatherDisplay:10.37,2013-01-12 11:19:00,
2013-01-12 06:24:00,52.0,46.7,29.86,SW,225,8.1,12.7,82,0.00,CLR,,0.00,WeatherDisplay:10.37,2013-01-12 11:24:00,
2013-01-12 06:29:00,51.8,46.5,29.86,SW,225,8.1,15.0,82,0.00,CLR,,0.00,WeatherDisplay:10.37,2013-01-12 11:29:00,
2013-01-12 06:34:00,51.8,46.5,29.85,SW,225,12.1,15.0,82,0.00,CLR,,0.00,WeatherDisplay:10.37,2013-01-12 11:34:00,
2013-01-12 06:39:00,51.8,46.5,29.86,SW,225,8.8,12.7,82,0.00,CLR,,0.00,WeatherDisplay:10.37,2013-01-12 11:39:00,
2013-01-12 06:44:00,51.8,46.5,29.85,SW,225,5.7,10.4,82,0.00,CLR,,0.00,WeatherDisplay:10.37,2013-01-12 11:44:00,
2013-01-12 06:49:00,51.6,46.6,29.85,SW,225,7.4,11.5,83,0.00,CLR,,0.00,WeatherDisplay:10.37,2013-01-12 11:49:00,
2013-01-12 06:54:00,51.6,46.6,29.85,SW,225,8.8,10.4,83,0.00,CLR,,0.00,WeatherDisplay:10.37,2013-01-12 11:54:00,
2013-01-12 06:59:00,51.6,46.6,29.86,SW,225,8.8,12.7,83,0.00,CLR,,0.00,WeatherDisplay:10.37,2013-01-12 11:59:00,
2013-01-12 07:04:00,51.6,46.6,29.85,SW,225,8.1,12.7,83,0.00,CLR,,0.00,WeatherDisplay:10.37,2013-01-12 12:04:00,
2013-01-12 07:09:00,51.6,46.6,29.85,SW,225,6.4,11.5,83,0.00,CLR,,0.00,WeatherDisplay:10.37,2013-01-12 12:09:00,
2013-01-12 07:14:00,51.4,46.8,29.85,SW,225,8.8,9.2,84,0.00,CLR,,0.00,WeatherDisplay:10.37,2013-01-12 12:14:00,
2013-01-12 07:19:00,51.4,46.8,29.86,West,270,8.1,13.8,84,0.00,CLR,,0.00,WeatherDisplay:10.37,2013-01-12 12:19:00,
2013-01-12 07:24:00,51.4,46.8,29.86,West,270,12.1,13.8,84,0.00,CLR,,0.00,WeatherDisplay:10.37,2013-01-12 12:24:00,
2013-01-12 07:29:00,51.6,46.9,29.86,West,270,12.8,13.8,84,0.00,CLR,,0.00,WeatherDisplay:10.37,2013-01-12 12:29:00,
2013-01-12 07:34:00,51.6,46.9,29.86,West,270,8.1,15.0,84,0.00,CLR,,0.00,WeatherDisplay:10.37,2013-01-12 12:34:00,
2013-01-12 07:39:00,51.6,46.9,29.86,West,270,10.4,12.7,84,0.00,CLR,,0.00,WeatherDisplay:10.37,2013-01-12 12:39:00,
2013-01-12 07:44:00,51.4,46.8,29.86,West,270,8.1,11.5,84,0.00,CLR,,0.00,WeatherDisplay:10.37,2013-01-12 12:44:00,
2013-01-12 07:49:00,51.6,46.9,29.87,West,270,8.1,12.7,84,0.00,CLR,,0.00,WeatherDisplay:10.37,2013-01-12 12:49:00,
2013-01-12 07:54:00,51.4,46.8,29.86,West,270,9.7,11.5,84,0.00,CLR,,0.00,WeatherDisplay:10.37,2013-01-12 12:54:00,
2013-01-12 07:59:00,51.4,46.8,29.86,West,270,7.4,13.8,84,0.00,CLR,,0.00,WeatherDisplay:10.37,2013-01-12 12:59:00,
2013-01-12 08:04:00,51.4,46.8,29.86,West,270,10.4,12.7,84,0.00,CLR,,0.00,WeatherDisplay:10.37,2013-01-12 13:04:00,
2013-01-12 08:09:00,51.4,46.8,29.88,West,270,8.1,13.8,84,0.00,CLR,,0.00,WeatherDisplay:10.37,2013-01-12 13:09:00,
2013-01-12 08:14:00,51.4,46.8,29.88,West,270,8.1,14.5,84,0.00,CLR,,0.00,WeatherDisplay:10.37,2013-01-12 13:14:00,
2013-01-12 08:19:00,51.4,46.8,29.87,West,270,7.4,11.5,84,0.00,CLR,,0.00,WeatherDisplay:10.37,2013-01-12 13:19:00,
2013-01-12 08:24:00,51.3,46.6,29.87,West,270,9.7,10.4,84,0.00,CLR,,0.00,WeatherDisplay:10.37,2013-01-12 13:24:00,
2013-01-12 08:29:00,51.4,46.8,29.88,West,270,8.8,12.7,84,0.00,CLR,,0.00,WeatherDisplay:10.37,2013-01-12 13:29:00,
2013-01-12 08:34:00,51.4,46.8,29.88,West,270,9.7,12.7,84,0.00,CLR,,0.00,WeatherDisplay:10.37,2013-01-12 13:34:00,
2013-01-12 08:39:00,51.4,46.8,29.88,West,270,6.4,10.4,84,0.00,CLR,,0.00,WeatherDisplay:10.37,2013-01-12 13:39:00,
2013-01-12 08:44:00,51.4,46.8,29.89,West,270,7.4,12.7,84,0.00,CLR,,0.00,WeatherDisplay:10.37,2013-01-12 13:44:00,
2013-01-12 08:49:00,51.4,47.1,29.88,West,270,6.4,12.7,85,0.00,CLR,,0.00,WeatherDisplay:10.37,2013-01-12 13:49:00,
2013-01-12 08:54:00,51.6,47.3,29.90,West,270,9.7,16.1,85,0.00,CLR,,0.00,WeatherDisplay:10.37,2013-01-12 13:54:00,
2013-01-12 08:59:00,51.6,47.3,29.89,West,270,8.1,12.7,85,0.00,CLR,,0.00,WeatherDisplay:10.37,2013-01-12 13:59:00,
2013-01-12 09:04:00,51.8,47.1,29.89,West,270,9.7,9.7,84,0.00,CLR,,0.00,WeatherDisplay:10.37,2013-01-12 14:04:00,
2013-01-12 09:09:00,51.8,47.1,29.89,West,270,7.4,12.7,84,0.00,CLR,,0.00,WeatherDisplay:10.37,2013-01-12 14:09:00,
2013-01-12 09:14:00,52.0,47.3,29.89,West,270,8.8,13.8,84,0.00,CLR,,0.00,WeatherDisplay:10.37,2013-01-12 14:14:00,
2013-01-12 09:20:00,52.0,47.0,29.90,West,270,8.1,12.7,83,0.00,CLR,,0.00,WeatherDisplay:10.37,2013-01-12 14:20:00,
2013-01-12 09:25:00,52.2,47.2,29.90,West,270,10.4,16.1,83,0.00,CLR,,0.00,WeatherDisplay:10.37,2013-01-12 14:25:00,
2013-01-12 09:30:00,52.2,47.2,29.90,West,270,8.0,0.0,83,0.00,CLR,CLR,0.00,WeatherDisplay:10.37,2013-01-12 14:30:00,
2013-01-12 09:35:00,52.2,47.2,29.90,West,270,7.0,0.0,83,0.00,CLR,CLR,0.00,WeatherDisplay:10.37,2013-01-12 14:35:00,
2013-01-12 09:40:00,52.0,47.0,29.90,West,270,7.0,0.0,83,0.00,CLR,CLR,0.00,WeatherDisplay:10.37,2013-01-12 14:40:00,
2013-01-12 09:45:00,52.2,47.2,29.90,West,270,7.0,0.0,83,0.00,CLR,CLR,0.00,WeatherDisplay:10.37,2013-01-12 14:45:00,
2013-01-12 09:50:00,52.3,47.3,29.90,West,270,7.0,0.0,83,0.00,CLR,CLR,0.00,WeatherDisplay:10.37,2013-01-12 14:50:00,
2013-01-12 09:55:00,52.9,47.8,29.89,West,270,8.0,0.0,83,0.00,CLR,CLR,0.00,WeatherDisplay:10.37,2013-01-12 14:55:00,
2013-01-12 10:00:00,53.2,48.2,29.89,West,270,10.0,0.0,83,0.00,CLR,CLR,0.00,WeatherDisplay:10.37,2013-01-12 15:00:00,
2013-01-12 10:05:00,53.4,48.1,29.89,West,270,7.4,12.7,82,0.00,CLR,,0.00,WeatherDisplay:10.37,2013-01-12 15:05:00,
2013-01-12 10:10:00,53.4,48.1,29.89,West,270,7.4,12.7,82,0.00,CLR,,0.00,WeatherDisplay:10.37,2013-01-12 15:10:00,
2013-01-12 10:15:00,53.2,47.9,29.90,West,270,6.4,12.7,82,0.00,CLR,,0.00,WeatherDisplay:10.37,2013-01-12 15:15:00,
2013-01-12 10:20:00,53.2,48.2,29.90,West,270,7.0,0.0,83,0.00,CLR,CLR,0.00,WeatherDisplay:10.37,2013-01-12 15:20:00,
2013-01-12 10:25:00,53.4,48.4,29.90,West,270,9.0,0.0,83,0.00,CLR,CLR,0.00,WeatherDisplay:10.37,2013-01-12 15:25:00,
2013-01-12 10:30:00,54.0,48.3,29.90,West,270,8.0,0.0,81,0.00,CLR,CLR,0.00,WeatherDisplay:10.37,2013-01-12 15:30:00,
2013-01-12 10:35:00,54.3,48.5,29.90,West,270,9.0,0.0,81,0.00,CLR,CLR,0.00,WeatherDisplay:10.37,2013-01-12 15:35:00,
2013-01-12 10:40:00,54.5,48.8,29.90,West,270,8.0,0.0,81,0.00,CLR,CLR,0.00,WeatherDisplay:10.37,2013-01-12 15:40:00,
2013-01-12 10:45:00,55.0,49.3,29.89,West,270,6.0,0.0,81,0.00,CLR,CLR,0.00,WeatherDisplay:10.37,2013-01-12 15:45:00,
2013-01-12 10:50:00,55.4,48.7,29.89,West,270,7.0,0.0,78,0.00,CLR,CLR,0.00,WeatherDisplay:10.37,2013-01-12 15:50:00,
2013-01-12 10:55:00,55.4,48.6,29.89,West,270,6.0,0.0,78,0.00,CLR,CLR,0.00,WeatherDisplay:10.37,2013-01-12 15:55:00,
2013-01-12 11:00:00,55.4,48.7,29.89,West,270,8.8,10.4,78,0.00,CLR,,0.00,WeatherDisplay:10.37,2013-01-12 16:00:00,
2013-01-12 11:05:00,55.8,48.7,29.89,West,270,6.4,11.5,77,0.00,CLR,,0.00,WeatherDisplay:10.37,2013-01-12 16:05:00,
2013-01-12 11:10:00,55.9,48.5,29.88,West,270,9.7,11.5,76,0.00,CLR,,0.00,WeatherDisplay:10.37,2013-01-12 16:10:00,
2013-01-12 11:15:00,56.1,48.3,29.88,SW,225,9.7,17.3,75,0.00,CLR,,0.00,WeatherDisplay:10.37,2013-01-12 16:15:00,
2013-01-12 11:20:00,56.3,48.1,29.88,SW,234,8.0,0.0,74,0.00,CLR,CLR,0.00,WeatherDisplay:10.37,2013-01-12 16:20:00,
2013-01-12 11:25:00,56.3,47.4,29.88,SW,235,14.0,0.0,72,0.00,CLR,CLR,0.00,WeatherDisplay:10.37,2013-01-12 16:25:00,
2013-01-12 11:30:00,56.3,47.8,29.88,SW,226,15.0,0.0,73,0.00,CLR,CLR,0.00,WeatherDisplay:10.37,2013-01-12 16:30:00,
2013-01-12 11:35:00,56.7,48.1,29.88,WSW,247,15.0,0.0,73,0.00,CLR,CLR,0.00,WeatherDisplay:10.37,2013-01-12 16:35:00,
2013-01-12 11:40:00,56.8,47.9,29.88,West,270,12.0,0.0,72,0.00,CLR,CLR,0.00,WeatherDisplay:10.37,2013-01-12 16:40:00,
2013-01-12 11:45:00,57.2,47.5,29.88,West,270,13.0,0.0,70,0.00,CLR,CLR,0.00,WeatherDisplay:10.37,2013-01-12 16:45:00,
2013-01-12 11:50:00,57.0,47.7,29.87,West,270,15.4,21.9,71,0.00,CLR,,0.00,WeatherDisplay:10.37,2013-01-12 16:50:00,
2013-01-12 11:55:00,56.7,47.4,29.86,West,270,12.1,28.8,71,0.00,CLR,,0.00,WeatherDisplay:10.37,2013-01-12 16:55:00,
2013-01-12 12:00:00,56.7,47.4,29.86,West,270,9.7,17.3,71,0.00,CLR,,0.00,WeatherDisplay:10.37,2013-01-12 17:00:00,
2013-01-12 12:05:00,56.7,47.4,29.86,West,270,14.5,21.9,71,0.00,CLR,,0.00,WeatherDisplay:10.37,2013-01-12 17:05:00,
2013-01-12 12:10:00,56.3,47.1,29.85,West,270,14.0,0.0,71,0.00,CLR,CLR,0.00,WeatherDisplay:10.37,2013-01-12 17:10:00,
2013-01-12 12:15:00,56.3,47.4,29.85,West,270,9.0,0.0,72,0.00,CLR,CLR,0.00,WeatherDisplay:10.37,2013-01-12 17:15:00,
2013-01-12 12:20:00,56.3,47.4,29.85,West,270,9.0,0.0,72,0.00,CLR,CLR,0.00,WeatherDisplay:10.37,2013-01-12 17:20:00,
2013-01-12 12:25:00,56.3,47.4,29.85,West,270,12.0,0.0,72,0.00,CLR,CLR,0.00,WeatherDisplay:10.37,2013-01-12 17:25:00,
2013-01-12 12:30:00,56.1,47.2,29.85,NW,315,11.4,16.1,72,0.00,CLR,,0.00,WeatherDisplay:10.37,2013-01-12 17:30:00,
2013-01-12 12:35:00,55.9,47.0,29.85,NW,313,15.0,0.0,72,0.00,CLR,CLR,0.00,WeatherDisplay:10.37,2013-01-12 17:35:00,
2013-01-12 12:40:00,55.8,46.9,29.85,NW,315,14.0,0.0,72,0.00,CLR,CLR,0.00,WeatherDisplay:10.37,2013-01-12 17:40:00,
2013-01-12 12:45:00,55.6,47.1,29.85,NW,315,13.8,17.3,73,0.00,CLR,,0.00,WeatherDisplay:10.37,2013-01-12 17:45:00,
2013-01-12 12:50:00,55.0,46.5,29.86,NW,315,12.1,20.7,73,0.00,CLR,,0.00,WeatherDisplay:10.37,2013-01-12 17:50:00,
2013-01-12 12:55:00,54.9,46.7,29.86,NW,315,13.8,19.6,74,0.00,CLR,,0.00,WeatherDisplay:10.37,2013-01-12 17:55:00,
2013-01-12 13:00:00,54.7,46.6,29.86,NW,315,13.8,15.0,74,0.00,CLR,,0.00,WeatherDisplay:10.37,2013-01-12 18:00:00,
2013-01-12 13:05:00,54.3,46.2,29.86,NW,315,9.7,16.1,74,0.00,CLR,,0.00,WeatherDisplay:10.37,2013-01-12 18:05:00,
2013-01-12 13:10:00,54.3,46.2,29.86,NW,315,10.0,0.0,74,0.00,CLR,CLR,0.00,WeatherDisplay:10.37,2013-01-12 18:10:00,
2013-01-12 13:15:00,54.3,46.6,29.86,NW,315,7.0,0.0,75,0.00,CLR,CLR,0.00,WeatherDisplay:10.37,2013-01-12 18:15:00,
2013-01-12 13:20:00,54.7,46.9,29.86,NW,315,7.0,0.0,75,0.00,CLR,CLR,0.00,WeatherDisplay:10.37,2013-01-12 18:20:00,
2013-01-12 13:25:00,54.9,46.7,29.86,NW,315,9.0,0.0,74,0.00,CLR,CLR,0.00,WeatherDisplay:10.37,2013-01-12 18:25:00,
2013-01-12 13:30:00,54.7,46.3,29.86,NW,315,7.0,0.0,73,0.00,CLR,CLR,0.00,WeatherDisplay:10.37,2013-01-12 18:30:00,
2013-01-12 13:35:00,54.3,46.2,29.86,NW,315,8.0,0.0,74,0.00,CLR,CLR,0.00,WeatherDisplay:10.37,2013-01-12 18:35:00,
2013-01-12 13:40:00,53.6,45.5,29.86,NW,315,9.7,15.0,74,0.00,CLR,,0.00,WeatherDisplay:10.37,2013-01-12 18:40:00,
2013-01-12 13:45:00,53.1,45.3,29.87,NW,315,9.7,15.0,75,0.00,CLR,,0.00,WeatherDisplay:10.37,2013-01-12 18:45:00,
2013-01-12 13:50:00,52.5,44.8,29.87,NW,315,12.1,17.3,75,0.00,CLR,,0.00,WeatherDisplay:10.37,2013-01-12 18:50:00,
2013-01-12 13:55:00,52.0,43.9,29.86,NW,315,8.8,12.7,74,0.00,CLR,,0.00,WeatherDisplay:10.37,2013-01-12 18:55:00,
2013-01-12 14:00:00,51.6,44.3,29.86,NW,315,9.7,12.7,76,0.00,CLR,,0.00,WeatherDisplay:10.37,2013-01-12 19:00:00,
2013-01-12 14:05:00,51.4,43.8,29.87,NW,315,9.0,0.0,75,0.00,CLR,CLR,0.00,WeatherDisplay:10.37,2013-01-12 19:05:00,
2013-01-12 14:10:00,51.3,43.6,29.87,NW,315,7.0,0.0,75,0.00,CLR,CLR,0.00,WeatherDisplay:10.37,2013-01-12 19:10:00,
2013-01-12 14:15:00,51.3,43.6,29.86,NW,315,6.0,0.0,75,0.00,CLR,CLR,0.00,WeatherDisplay:10.37,2013-01-12 19:15:00,
2013-01-12 14:20:00,51.1,43.1,29.86,NW,315,7.0,0.0,74,0.00,CLR,CLR,0.00,WeatherDisplay:10.37,2013-01-12 19:20:00,
2013-01-12 14:25:00,51.3,43.3,29.87,NW,315,5.0,0.0,74,0.00,CLR,CLR,0.00,WeatherDisplay:10.37,2013-01-12 19:25:00,
2013-01-12 14:30:00,51.4,43.1,29.87,NW,315,5.0,0.0,73,0.00,CLR,CLR,0.00,WeatherDisplay:10.37,2013-01-12 19:30:00,
2013-01-12 14:35:00,51.2,41.8,29.88,NW,315,7.0,0.0,70,0.00,CLR,CLR,0.00,WeatherDisplay:10.37,2013-01-12 19:35:00,
2013-01-12 14:40:00,50.9,40.7,29.89,NW,315,8.8,13.8,68,0.00,CLR,,0.00,WeatherDisplay:10.37,2013-01-12 19:40:00,
2013-01-12 14:45:00,50.7,40.2,29.89,NW,315,4.7,6.9,67,0.00,CLR,,0.00,WeatherDisplay:10.37,2013-01-12 19:45:00,
2013-01-12 14:50:00,50.9,40.3,29.89,NW,315,5.7,9.2,67,0.00,CLR,,0.00,WeatherDisplay:10.37,2013-01-12 19:50:00,
2013-01-12 14:55:00,50.9,40.3,29.89,NW,315,4.0,8.1,67,0.00,CLR,,0.00,WeatherDisplay:10.37,2013-01-12 19:55:00,
2013-01-12 15:00:00,50.7,40.2,29.89,NW,315,8.0,0.0,67,0.00,CLR,CLR,0.00,WeatherDisplay:10.37,2013-01-12 20:00:00,
2013-01-12 15:05:00,50.4,39.4,29.89,NW,315,6.0,0.0,66,0.00,CLR,CLR,0.00,WeatherDisplay:10.37,2013-01-12 20:05:00,
2013-01-12 15:10:00,50.2,39.3,29.90,NW,315,3.0,0.0,66,0.00,CLR,CLR,0.00,WeatherDisplay:10.37,2013-01-12 20:10:00,
2013-01-12 15:15:00,49.9,38.9,29.90,NW,315,7.0,0.0,66,0.00,CLR,CLR,0.00,WeatherDisplay:10.37,2013-01-12 20:15:00,
2013-01-12 15:20:00,49.6,38.7,29.90,NW,315,7.0,0.0,66,0.00,CLR,CLR,0.00,WeatherDisplay:10.37,2013-01-12 20:20:00,
2013-01-12 15:25:00,49.5,39.0,29.90,NW,315,3.0,0.0,67,0.00,CLR,CLR,0.00,WeatherDisplay:10.37,2013-01-12 20:25:00,
2013-01-12 15:30:00,49.5,38.6,29.90,NW,315,6.0,0.0,66,0.00,CLR,CLR,0.00,WeatherDisplay:10.37,2013-01-12 20:30:00,
2013-01-12 15:35:00,49.1,38.2,29.90,NW,315,3.3,8.1,66,0.00,CLR,,0.00,WeatherDisplay:10.37,2013-01-12 20:35:00,
2013-01-12 15:40:00,48.7,38.3,29.90,NW,315,5.7,6.9,67,0.00,CLR,,0.00,WeatherDisplay:10.37,2013-01-12 20:40:00,
2013-01-12 15:45:00,48.6,38.1,29.91,NW,315,4.0,6.9,67,0.00,CLR,,0.00,WeatherDisplay:10.37,2013-01-12 20:45:00,
2013-01-12 15:50:00,48.2,37.8,29.91,NW,315,5.7,6.9,67,0.00,CLR,,0.00,WeatherDisplay:10.37,2013-01-12 20:50:00,
2013-01-12 15:55:00,48.0,38.0,29.91,NW,315,2.0,0.0,68,0.00,CLR,CLR,0.00,WeatherDisplay:10.37,2013-01-12 20:55:00,
2013-01-12 16:00:00,47.8,37.8,29.91,NW,315,1.0,0.0,68,0.00,CLR,CLR,0.00,WeatherDisplay:10.37,2013-01-12 21:00:00,
2013-01-12 16:05:00,47.7,38.0,29.91,NW,315,1.0,0.0,69,0.00,CLR,CLR,0.00,WeatherDisplay:10.37,2013-01-12 21:05:00,
2013-01-12 16:10:00,47.5,37.4,29.92,NW,315,3.0,0.0,68,0.00,CLR,CLR,0.00,WeatherDisplay:10.37,2013-01-12 21:10:00,
2013-01-12 16:15:00,47.3,37.3,29.92,NW,315,5.0,0.0,68,0.00,CLR,CLR,0.00,WeatherDisplay:10.37,2013-01-12 21:15:00,
2013-01-12 16:20:00,46.9,36.9,29.93,NW,315,3.0,0.0,68,0.00,CLR,CLR,0.00,WeatherDisplay:10.37,2013-01-12 21:20:00,
2013-01-12 16:25:00,46.8,36.4,29.93,NW,315,5.0,0.0,67,0.00,CLR,CLR,0.00,WeatherDisplay:10.37,2013-01-12 21:25:00,
2013-01-12 16:30:00,46.6,36.2,29.93,NW,315,3.3,5.8,67,0.00,CLR,,0.00,WeatherDisplay:10.37,2013-01-12 21:30:00,
2013-01-12 16:35:00,46.4,36.0,29.94,NW,315,3.0,0.0,67,0.00,CLR,CLR,0.00,WeatherDisplay:10.37,2013-01-12 21:35:00,
2013-01-12 16:40:00,46.4,36.0,29.93,NW,315,1.7,5.8,67,0.00,CLR,,0.00,WeatherDisplay:10.37,2013-01-12 21:40:00,
2013-01-12 16:45:00,46.2,35.8,29.94,NW,315,5.0,0.0,67,0.00,CLR,CLR,0.00,WeatherDisplay:10.37,2013-01-12 21:45:00,
2013-01-12 16:50:00,46.0,35.7,29.94,NW,315,5.0,0.0,67,0.00,CLR,CLR,0.00,WeatherDisplay:10.37,2013-01-12 21:50:00,
2013-01-12 16:55:00,45.9,35.9,29.95,NW,315,3.0,0.0,68,0.00,CLR,CLR,0.00,WeatherDisplay:10.37,2013-01-12 21:55:00,
2013-01-12 17:00:00,45.9,35.5,29.95,NW,315,3.0,0.0,67,0.00,CLR,CLR,0.00,WeatherDisplay:10.37,2013-01-12 22:00:00,
2013-01-12 17:05:00,45.7,35.7,29.94,NW,315,3.0,0.0,68,0.00,CLR,CLR,0.00,WeatherDisplay:10.37,2013-01-12 22:05:00,
2013-01-12 17:10:00,45.7,35.7,29.93,NW,315,1.0,0.0,68,0.00,CLR,CLR,0.00,WeatherDisplay:10.37,2013-01-12 22:10:00,
2013-01-12 17:15:00,45.5,35.5,29.93,NW,315,1.0,0.0,68,0.00,CLR,CLR,0.00,WeatherDisplay:10.37,2013-01-12 22:15:00,
2013-01-12 17:20:00,45.5,35.5,29.94,NW,315,3.3,3.3,68,0.00,CLR,,0.00,WeatherDisplay:10.37,2013-01-12 22:20:00,
2013-01-12 17:25:00,45.3,35.0,29.93,NW,315,2.4,6.9,67,0.00,CLR,,0.00,WeatherDisplay:10.37,2013-01-12 22:25:00,
2013-01-12 17:30:00,45.1,35.2,29.93,NW,315,1.7,4.6,68,0.00,CLR,,0.00,WeatherDisplay:10.37,2013-01-12 22:30:00,
2013-01-12 17:35:00,45.0,35.4,29.92,NW,315,1.0,0.0,69,0.00,CLR,CLR,0.00,WeatherDisplay:10.37,2013-01-12 22:35:00,
2013-01-12 17:40:00,44.8,35.2,29.92,NW,315,1.7,4.6,69,0.00,CLR,,0.00,WeatherDisplay:10.37,2013-01-12 22:40:00,
2013-01-12 17:45:00,44.8,35.2,29.92,NW,315,0.0,0.0,69,0.00,CLR,CLR,0.00,WeatherDisplay:10.37,2013-01-12 22:45:00,
2013-01-12 17:50:00,44.6,35.4,29.92,NW,315,2.0,0.0,70,0.00,CLR,CLR,0.00,WeatherDisplay:10.37,2013-01-12 22:50:00,
2013-01-12 17:55:00,44.4,35.6,29.92,NW,315,1.0,0.0,71,0.00,CLR,CLR,0.00,WeatherDisplay:10.37,2013-01-12 22:55:00,
2013-01-12 18:00:00,44.4,35.6,29.92,NW,315,1.0,0.0,71,0.00,CLR,CLR,0.00,WeatherDisplay:10.37,2013-01-12 23:00:00,
2013-01-12 18:05:00,44.2,35.8,29.93,NW,315,1.0,0.0,72,0.00,CLR,CLR,0.00,WeatherDisplay:10.37,2013-01-12 23:05:00,
2013-01-12 18:10:00,44.2,35.8,29.93,NW,315,0.0,0.0,72,0.00,CLR,CLR,0.00,WeatherDisplay:10.37,2013-01-12 23:10:00,
2013-01-12 18:15:00,44.2,35.8,29.94,NW,315,2.0,0.0,72,0.00,CLR,CLR,0.00,WeatherDisplay:10.37,2013-01-12 23:15:00,
2013-01-12 18:20:00,44.1,35.6,29.95,NW,315,3.3,3.5,72,0.00,CLR,,0.00,WeatherDisplay:10.37,2013-01-12 23:20:00,
2013-01-12 18:25:00,43.9,35.8,29.96,NW,315,2.4,4.6,73,0.00,CLR,,0.00,WeatherDisplay:10.37,2013-01-12 23:25:00,
2013-01-12 18:30:00,43.7,35.6,29.96,NW,315,4.7,8.1,73,0.00,CLR,,0.00,WeatherDisplay:10.37,2013-01-12 23:30:00,
2013-01-12 18:35:00,43.7,35.6,29.95,NW,315,3.0,0.0,73,0.00,CLR,CLR,0.00,WeatherDisplay:10.37,2013-01-12 23:35:00,
2013-01-12 18:40:00,43.7,35.6,29.95,NW,315,7.0,0.0,73,0.00,CLR,CLR,0.00,WeatherDisplay:10.37,2013-01-12 23:40:00,
2013-01-12 18:45:00,43.7,36.0,29.95,NW,315,1.7,4.6,74,0.00,CLR,,0.00,WeatherDisplay:10.37,2013-01-12 23:45:00,
2013-01-12 18:50:00,43.5,35.8,29.95,NW,315,5.0,0.0,74,0.00,CLR,CLR,0.00,WeatherDisplay:10.37,2013-01-12 23:50:00,
2013-01-12 18:55:00,43.5,35.8,29.94,NW,315,6.0,0.0,74,0.00,CLR,CLR,0.00,WeatherDisplay:10.37,2013-01-12 23:55:00,
2013-01-12 19:00:00,43.3,35.6,29.94,NW,317,5.0,0.0,74,0.00,CLR,CLR,0.00,WeatherDisplay:10.37,2013-01-13 00:00:00,
2013-01-12 19:05:00,43.3,35.6,29.93,NW,317,2.0,0.0,74,0.00,CLR,CLR,0.00,WeatherDisplay:10.37,2013-01-13 00:05:00,
2013-01-12 19:10:00,43.2,35.4,29.92,NNW,334,5.0,0.0,74,0.00,CLR,CLR,0.00,WeatherDisplay:10.37,2013-01-13 00:10:00,
2013-01-12 19:15:00,43.0,35.3,29.91,North,352,5.0,0.0,74,0.00,CLR,CLR,0.00,WeatherDisplay:10.37,2013-01-13 00:15:00,
2013-01-12 19:20:00,43.0,35.3,29.91,North,0,4.0,8.1,74,0.00,CLR,,0.00,WeatherDisplay:10.37,2013-01-13 00:20:00,
2013-01-12 19:25:00,42.8,35.1,29.91,North,0,3.0,0.0,74,0.00,CLR,CLR,0.00,WeatherDisplay:10.37,2013-01-13 00:25:00,
2013-01-12 19:30:00,42.7,35.0,29.90,North,0,5.0,0.0,74,0.00,CLR,CLR,0.00,WeatherDisplay:10.37,2013-01-13 00:30:00,
2013-01-12 19:35:00,42.6,35.2,29.90,North,0,2.0,8.1,75,0.00,CLR,,0.00,WeatherDisplay:10.37,2013-01-13 00:35:00,
2013-01-12 19:40:00,42.6,35.2,29.89,North,0,2.0,0.0,75,0.00,CLR,CLR,0.00,WeatherDisplay:10.37,2013-01-13 00:40:00,
2013-01-12 19:45:00,42.4,35.1,29.89,North,0,2.0,0.0,75,0.00,CLR,CLR,0.00,WeatherDisplay:10.37,2013-01-13 00:45:00,
2013-01-12 19:50:00,42.4,34.7,29.88,North,0,2.0,0.0,74,0.00,CLR,CLR,0.00,WeatherDisplay:10.37,2013-01-13 00:50:00,
2013-01-12 19:55:00,42.4,35.1,29.89,North,0,4.0,5.8,75,0.00,CLR,,0.00,WeatherDisplay:10.37,2013-01-13 00:55:00,
2013-01-12 20:00:00,42.4,34.7,29.89,North,0,1.0,0.0,74,0.00,CLR,CLR,0.00,WeatherDisplay:10.37,2013-01-13 01:00:00,
2013-01-12 20:05:00,42.3,34.9,29.89,North,0,3.0,0.0,75,0.00,CLR,CLR,0.00,WeatherDisplay:10.37,2013-01-13 01:05:00,
2013-01-12 20:10:00,42.3,34.6,29.89,North,0,0.9,5.8,74,0.00,CLR,,0.00,WeatherDisplay:10.37,2013-01-13 01:10:00,
2013-01-12 20:15:00,42.3,34.9,29.89,North,0,0.0,2.3,75,0.00,CLR,,0.00,WeatherDisplay:10.37,2013-01-13 01:15:00,
2013-01-12 20:20:00,42.3,34.9,29.88,North,0,0.0,2.3,75,0.00,CLR,,0.00,WeatherDisplay:10.37,2013-01-13 01:20:00,
2013-01-12 20:25:00,42.4,35.1,29.88,North,0,1.0,0.0,75,0.00,CLR,CLR,0.00,WeatherDisplay:10.37,2013-01-13 01:25:00,
2013-01-12 20:30:00,42.4,35.1,29.86,North,0,2.0,0.0,75,0.00,CLR,CLR,0.00,WeatherDisplay:10.37,2013-01-13 01:30:00,
2013-01-12 20:35:00,42.4,35.1,29.86,North,0,0.0,0.0,75,0.00,CLR,CLR,0.00,WeatherDisplay:10.37,2013-01-13 01:35:00,
2013-01-12 20:40:00,42.4,35.1,29.86,North,0,0.0,0.0,75,0.00,CLR,CLR,0.00,WeatherDisplay:10.37,2013-01-13 01:40:00,
2013-01-12 20:45:00,42.3,35.0,29.86,North,0,1.0,0.0,75,0.00,CLR,CLR,0.00,WeatherDisplay:10.37,2013-01-13 01:45:00,
2013-01-12 20:50:00,42.3,34.9,29.87,North,0,0.0,0.0,75,0.00,CLR,CLR,0.00,WeatherDisplay:10.37,2013-01-13 01:50:00,
2013-01-12 20:55:00,42.3,34.9,29.86,North,0,2.0,0.0,75,0.00,CLR,CLR,0.00,WeatherDisplay:10.37,2013-01-13 01:55:00,
2013-01-12 21:00:00,42.1,34.7,29.86,North,0,0.9,2.3,75,0.00,CLR,,0.00,WeatherDisplay:10.37,2013-01-13 02:00:00,
2013-01-12 21:05:00,42.1,35.1,29.86,North,0,2.0,0.0,76,0.00,CLR,CLR,0.00,WeatherDisplay:10.37,2013-01-13 02:05:00,
2013-01-12 21:10:00,42.1,35.1,29.86,North,0,0.0,2.3,76,0.00,CLR,,0.00,WeatherDisplay:10.37,2013-01-13 02:10:00,
2013-01-12 21:15:00,42.1,35.1,29.86,North,0,0.9,3.5,76,0.00,CLR,,0.00,WeatherDisplay:10.37,2013-01-13 02:15:00,
2013-01-12 21:20:00,42.1,35.4,29.86,North,2,2.0,0.0,77,0.00,CLR,CLR,0.00,WeatherDisplay:10.37,2013-01-13 02:20:00,
2013-01-12 21:25:00,42.1,35.4,29.85,NNE,27,0.0,0.0,77,0.00,CLR,CLR,0.00,WeatherDisplay:10.37,2013-01-13 02:25:00,
2013-01-12 21:30:00,42.0,35.6,29.84,NE,45,0.0,0.0,78,0.00,CLR,CLR,0.00,WeatherDisplay:10.37,2013-01-13 02:30:00,
2013-01-12 21:35:00,41.9,35.5,29.84,NE,45,1.0,0.0,78,0.00,CLR,CLR,0.00,WeatherDisplay:10.37,2013-01-13 02:35:00,
2013-01-12 21:40:00,41.8,35.8,29.84,NE,45,0.0,0.0,79,0.00,CLR,CLR,0.00,WeatherDisplay:10.37,2013-01-13 02:40:00,
2013-01-12 21:45:00,41.7,36.0,29.83,NE,45,0.0,0.0,80,0.00,CLR,CLR,0.00,WeatherDisplay:10.37,2013-01-13 02:45:00,
2013-01-12 21:50:00,41.5,36.1,29.82,NE,45,1.0,0.0,81,0.00,CLR,CLR,0.00,WeatherDisplay:10.37,2013-01-13 02:50:00,
2013-01-12 21:55:00,41.4,36.3,29.82,NE,45,0.0,1.1,82,0.00,CLR,,0.00,WeatherDisplay:10.37,2013-01-13 02:55:00,
2013-01-12 22:00:00,41.4,36.6,29.82,NE,45,0.9,2.3,83,0.01,RA,,0.01,WeatherDisplay:10.37,2013-01-13 03:00:00,
2013-01-12 22:05:00,41.1,36.4,29.81,NE,45,1.0,0.0,83,0.01,RA,RA,0.01,WeatherDisplay:10.37,2013-01-13 03:05:00,
2013-01-12 22:10:00,40.8,36.7,29.81,NE,45,0.0,2.3,85,0.01,CLR,,0.01,WeatherDisplay:10.37,2013-01-13 03:10:00,
2013-01-12 22:15:00,40.7,36.6,29.81,NE,45,2.0,0.0,85,0.01,RA,RA,0.02,WeatherDisplay:10.37,2013-01-13 03:15:00,
2013-01-12 22:20:00,40.6,36.8,29.81,NE,45,2.0,0.0,86,0.01,RA,RA,0.02,WeatherDisplay:10.37,2013-01-13 03:20:00,
2013-01-12 22:25:00,40.6,36.7,29.82,NE,45,2.0,0.0,86,0.00,,,0.02,WeatherDisplay:10.37,2013-01-13 03:25:00,
2013-01-12 22:30:00,40.5,36.9,29.82,NE,45,3.0,0.0,87,0.00,CLR,CLR,0.02,WeatherDisplay:10.37,2013-01-13 03:30:00,
2013-01-12 22:35:00,40.5,37.2,29.82,NE,34,3.0,0.0,88,0.00,CLR,CLR,0.02,WeatherDisplay:10.37,2013-01-13 03:35:00,
2013-01-12 22:40:00,40.3,37.0,29.83,NNW,334,5.0,0.0,88,0.00,CLR,CLR,0.02,WeatherDisplay:10.37,2013-01-13 03:40:00,
2013-01-12 22:45:00,40.3,37.0,29.83,WNW,284,2.0,0.0,88,0.01,RA,RA,0.04,WeatherDisplay:10.37,2013-01-13 03:45:00,
2013-01-12 22:50:00,40.1,36.8,29.84,NE,45,2.0,9.2,88,0.04,RA,,0.04,WeatherDisplay:10.37,2013-01-13 03:50:00,
2013-01-12 22:55:00,39.9,36.7,29.84,NE,45,4.8,6.9,88,0.04,CLR,,0.04,WeatherDisplay:10.37,2013-01-13 03:55:00,
2013-01-12 23:00:00,39.7,36.5,29.84,ENE,68,2.8,9.2,88,0.04,RA,,0.05,WeatherDisplay:10.37,2013-01-13 04:00:00,
2013-01-12 23:05:00,39.6,36.3,29.84,West,270,5.7,11.5,88,0.04,RA,,0.05,WeatherDisplay:10.37,2013-01-13 04:05:00,
2013-01-12 23:10:00,39.6,36.3,29.84,NW,310,3.0,0.0,88,0.00,CLR,CLR,0.05,WeatherDisplay:10.37,2013-01-13 04:10:00,
2013-01-12 23:15:00,39.4,36.1,29.84,NW,315,5.0,0.0,88,0.01,RA,RA,0.06,WeatherDisplay:10.37,2013-01-13 04:15:00,
2013-01-12 23:20:00,39.4,36.1,29.84,NW,315,6.0,0.0,88,0.01,RA,RA,0.06,WeatherDisplay:10.37,2013-01-13 04:20:00,
2013-01-12 23:25:00,39.2,36.2,29.85,NW,315,6.0,0.0,89,0.01,RA,RA,0.07,WeatherDisplay:10.37,2013-01-13 04:25:00,
2013-01-12 23:30:00,39.2,36.5,29.84,NNW,339,5.0,0.0,90,0.01,RA,RA,0.07,WeatherDisplay:10.37,2013-01-13 04:30:00,
2013-01-12 23:35:00,39.0,36.6,29.84,North,353,7.0,0.0,91,0.01,RA,RA,0.08,WeatherDisplay:10.37,2013-01-13 04:35:00,
2013-01-12 23:40:00,38.8,36.7,29.85,NW,325,2.0,0.0,92,0.01,RA,RA,0.08,WeatherDisplay:10.37,2013-01-13 04:40:00,
2013-01-12 23:45:00,38.7,36.5,29.84,WNW,299,3.0,0.0,92,0.00,,,0.08,WeatherDisplay:10.37,2013-01-13 04:45:00,
2013-01-12 23:50:00,38.5,36.4,29.84,West,270,3.3,13.8,92,0.06,RA,,0.09,WeatherDisplay:10.37,2013-01-13 04:50:00,
2013-01-12 23:55:00,38.3,36.2,29.84,NW,315,5.7,9.2,92,0.06,RA,,0.11,WeatherDisplay:10.37,2013-01-13 04:55:00,